When you browse on this site, cookies collect data to enhance your experience and personalize the content and advertising you see.
Visit our Privacy Policy to learn more. By continuing to use the site, you agree to this use of cookies and data.
  • En España
  • Lista de países
  • Para 7 días
  • Temperatura del agua
  • El tiempo en el mapa
  • Informadores
  • user-avatar
    Iniciar sesión

    Tiempo cada hora Los Andes

    Hoy, 26 Enero, Domingo

    Tiempo Temperatura Precipitaciones Viento Presión Humedad
    00:00 +20°C° 0 mm 0 mps 691 mmHg 57%
    01:00 +19°C° 0 mm 0 mps 690 mmHg 63%
    02:00 +19°C° 0 mm 0 mps 690 mmHg 64%
    03:00 +19°C° 0 mm 0 mps 690 mmHg 65%
    04:00 +18°C° 0 mm 0 mps 690 mmHg 67%
    05:00 +20°C° 0 mm 0 mps 691 mmHg 59%
    06:00 +22°C° 0 mm 0 mps 692 mmHg 51%
    07:00 +26°C° 0 mm 1 mps 693 mmHg 44%
    08:00 +27°C° 0 mm 1 mps 693 mmHg 39%
    09:00 +29°C° 0 mm 2 mps 693 mmHg 34%
    10:00 +31°C° 0 mm 3 mps 693 mmHg 29%
    11:00 +33°C° 0 mm 3 mps 693 mmHg 26%
    12:00 +34°C° 0 mm 4 mps 693 mmHg 23%
    13:00 +35°C° 0 mm 4 mps 693 mmHg 21%
    14:00 +34°C° 0 mm 4 mps 693 mmHg 21%
    15:00 +34°C° 0 mm 5 mps 692 mmHg 21%
    16:00 +34°C° 0 mm 5 mps 692 mmHg 22%
    17:00 +30°C° 0 mm 4 mps 692 mmHg 29%
    18:00 +28°C° 0 mm 3 mps 692 mmHg 37%
    19:00 +25°C° 0 mm 1 mps 691 mmHg 45%
    20:00 +24°C° 0 mm 1 mps 691 mmHg 49%
    21:00 +23°C° 0 mm 1 mps 691 mmHg 53%
    22:00 +20°C° 0 mm 0 mps 691 mmHg 56%
    23:00 +20°C° 0 mm 0 mps 690 mmHg 57%

    Mañana, 27 Enero, Lunes

    Tiempo Temperatura Precipitaciones Viento Presión Humedad
    00:00 +19°C° 0 mm 0 mps 690 mmHg 57%
    01:00 +19°C° 0 mm 0 mps 690 mmHg 58%
    02:00 +19°C° 0 mm 0 mps 690 mmHg 59%
    03:00 +18°C° 0 mm 0 mps 689 mmHg 59%
    04:00 +18°C° 0 mm 0 mps 689 mmHg 60%
    05:00 +20°C° 0 mm 0 mps 690 mmHg 52%
    06:00 +23°C° 0 mm 0 mps 690 mmHg 43%
    07:00 +27°C° 0 mm 1 mps 691 mmHg 34%
    08:00 +29°C° 0 mm 1 mps 691 mmHg 31%
    09:00 +30°C° 0 mm 2 mps 691 mmHg 28%
    10:00 +33°C° 0 mm 3 mps 691 mmHg 25%
    11:00 +34°C° 0 mm 3 mps 691 mmHg 24%
    12:00 +35°C° 0 mm 4 mps 691 mmHg 23%
    13:00 +35°C° 0 mm 5 mps 691 mmHg 22%
    14:00 +35°C° 0 mm 5 mps 691 mmHg 24%
    15:00 +34°C° 0 mm 5 mps 691 mmHg 26%
    16:00 +34°C° 0 mm 5 mps 691 mmHg 28%
    17:00 +30°C° 0 mm 4 mps 690 mmHg 36%
    18:00 +28°C° 0 mm 3 mps 690 mmHg 44%
    19:00 +25°C° 0 mm 2 mps 690 mmHg 52%
    20:00 +24°C° 0 mm 1 mps 690 mmHg 57%
    21:00 +23°C° 0 mm 1 mps 690 mmHg 63%
    22:00 +20°C° 0 mm 0 mps 690 mmHg 68%
    23:00 +19°C° 0 mm 0 mps 689 mmHg 68%

    Pasado mañana, 28 Enero, Martes

    Tiempo Temperatura Precipitaciones Viento Presión Humedad
    00:00 +19°C° 0 mm 0 mps 689 mmHg 68%
    01:00 +19°C° 0 mm 0 mps 688 mmHg 68%
    02:00 +19°C° 0 mm 0 mps 688 mmHg 68%
    03:00 +19°C° 0 mm 0 mps 688 mmHg 68%
    04:00 +19°C° 0 mm 0 mps 688 mmHg 69%
    05:00 +20°C° 0 mm 0 mps 688 mmHg 63%
    06:00 +24°C° 0 mm 1 mps 689 mmHg 57%
    07:00 +25°C° 0 mm 1 mps 689 mmHg 51%
    08:00 +27°C° 0.1 mm 2 mps 689 mmHg 47%
    09:00 +28°C° 0.1 mm 2 mps 689 mmHg 42%
    10:00 +29°C° 0.1 mm 3 mps 689 mmHg 38%
    11:00 +30°C° 0.2 mm 3 mps 690 mmHg 36%
    12:00 +30°C° 0.2 mm 4 mps 690 mmHg 35%
    13:00 +32°C° 0.2 mm 4 mps 690 mmHg 33%
    14:00 +30°C° 0.3 mm 4 mps 690 mmHg 34%
    15:00 +30°C° 0.3 mm 4 mps 689 mmHg 35%
    16:00 +29°C° 0.3 mm 4 mps 689 mmHg 36%
    17:00 +27°C° 0.1 mm 3 mps 689 mmHg 43%
    18:00 +25°C° 0.1 mm 3 mps 689 mmHg 51%
    19:00 +23°C° 0.1 mm 2 mps 689 mmHg 58%
    20:00 +20°C° 0 mm 2 mps 689 mmHg 64%
    21:00 +20°C° 0 mm 1 mps 689 mmHg 70%
    22:00 +17°C° 0 mm 0 mps 689 mmHg 76%
    23:00 +17°C° 0 mm 0 mps 688 mmHg 75%

    29 Enero, Miércoles

    Tiempo Temperatura Precipitaciones Viento Presión Humedad
    00:00 +17°C° 0 mm 0 mps 688 mmHg 75%
    01:00 +16°C° 0 mm 0 mps 688 mmHg 74%
    02:00 +16°C° 0 mm 0 mps 688 mmHg 75%
    03:00 +16°C° 0 mm 0 mps 688 mmHg 77%
    04:00 +15°C° 0 mm 0 mps 688 mmHg 78%
    05:00 +17°C° 0 mm 0 mps 689 mmHg 69%
    06:00 +21°C° 0 mm 1 mps 689 mmHg 60%
    07:00 +23°C° 0 mm 1 mps 690 mmHg 52%
    08:00 +25°C° 0 mm 1 mps 690 mmHg 47%
    09:00 +26°C° 0 mm 2 mps 691 mmHg 42%
    10:00 +28°C° 0 mm 3 mps 691 mmHg 37%
    11:00 +29°C° 0.1 mm 3 mps 691 mmHg 35%
    12:00 +30°C° 0.1 mm 4 mps 691 mmHg 32%
    13:00 +32°C° 0.1 mm 4 mps 691 mmHg 30%
    14:00 +30°C° 0.2 mm 4 mps 691 mmHg 32%
    15:00 +30°C° 0.2 mm 4 mps 691 mmHg 34%
    16:00 +29°C° 0.2 mm 4 mps 691 mmHg 36%
    17:00 +27°C° 0.1 mm 3 mps 691 mmHg 43%
    18:00 +25°C° 0.1 mm 2 mps 691 mmHg 51%
    19:00 +23°C° 0.1 mm 2 mps 691 mmHg 59%
    20:00 +22°C° 0 mm 1 mps 691 mmHg 63%
    21:00 +21°C° 0 mm 1 mps 691 mmHg 68%
    22:00 +18°C° 0 mm 0 mps 691 mmHg 72%
    23:00 +17°C° 0 mm 0 mps 690 mmHg 72%

    30 Enero, Jueves

    Tiempo Temperatura Precipitaciones Viento Presión Humedad
    00:00 +17°C° 0 mm 0 mps 690 mmHg 72%
    01:00 +17°C° 0 mm 0 mps 689 mmHg 72%
    02:00 +16°C° 0 mm 0 mps 689 mmHg 72%
    03:00 +16°C° 0 mm 0 mps 689 mmHg 71%
    04:00 +16°C° 0 mm 0 mps 689 mmHg 70%
    05:00 +18°C° 0 mm 0 mps 689 mmHg 60%
    06:00 +21°C° 0 mm 0 mps 690 mmHg 50%
    07:00 +23°C° 0 mm 0 mps 691 mmHg 40%
    08:00 +27°C° 0 mm 1 mps 691 mmHg 35%
    09:00 +29°C° 0 mm 2 mps 691 mmHg 30%
    10:00 +30°C° 0 mm 3 mps 691 mmHg 26%
    11:00 +31°C° 0 mm 3 mps 691 mmHg 24%
    12:00 +33°C° 0 mm 4 mps 691 mmHg 22%
    13:00 +34°C° 0 mm 4 mps 691 mmHg 21%
    14:00 +34°C° 0 mm 4 mps 691 mmHg 23%
    15:00 +33°C° 0 mm 4 mps 691 mmHg 25%
    16:00 +33°C° 0 mm 4 mps 690 mmHg 27%
    17:00 +29°C° 0 mm 3 mps 690 mmHg 34%
    18:00 +27°C° 0 mm 2 mps 690 mmHg 42%
    19:00 +24°C° 0 mm 1 mps 690 mmHg 49%
    20:00 +23°C° 0 mm 1 mps 690 mmHg 53%
    21:00 +22°C° 0 mm 1 mps 690 mmHg 57%
    22:00 +19°C° 0 mm 0 mps 690 mmHg 60%
    23:00 +19°C° 0 mm 0 mps 689 mmHg 61%

    31 Enero, Viernes

    Tiempo Temperatura Precipitaciones Viento Presión Humedad
    00:00 +18°C° 0 mm 0 mps 689 mmHg 61%
    01:00 +18°C° 0 mm 0 mps 688 mmHg 62%
    02:00 +18°C° 0 mm 0 mps 688 mmHg 62%
    03:00 +17°C° 0 mm 0 mps 688 mmHg 62%
    04:00 +17°C° 0 mm 0 mps 688 mmHg 63%
    05:00 +19°C° 0 mm 0 mps 689 mmHg 54%
    06:00 +22°C° 0 mm 0 mps 690 mmHg 46%
    07:00 +26°C° 0 mm 1 mps 690 mmHg 37%
    08:00 +27°C° 0.1 mm 1 mps 691 mmHg 34%
    09:00 +29°C° 0.1 mm 2 mps 691 mmHg 31%
    10:00 +31°C° 0.1 mm 3 mps 691 mmHg 27%
    11:00 +31°C° 0.1 mm 3 mps 691 mmHg 26%
    12:00 +33°C° 0.1 mm 4 mps 691 mmHg 24%
    13:00 +34°C° 0.1 mm 4 mps 691 mmHg 23%
    14:00 +33°C° 0 mm 4 mps 691 mmHg 24%
    15:00 +33°C° 0 mm 4 mps 691 mmHg 25%
    16:00 +32°C° 0 mm 4 mps 691 mmHg 26%
    17:00 +29°C° 0 mm 3 mps 691 mmHg 32%
    18:00 +26°C° 0 mm 2 mps 691 mmHg 37%
    19:00 +24°C° 0 mm 1 mps 690 mmHg 43%
    20:00 +23°C° 0 mm 1 mps 690 mmHg 45%
    21:00 +22°C° 0 mm 1 mps 690 mmHg 47%
    22:00 +20°C° 0 mm 0 mps 690 mmHg 49%
    23:00 +19°C° 0 mm 0 mps 690 mmHg 51%
    Mostrar más